Location: Pisoniano
(41.9000°N, 12.9500°E)
Time: 21:28:56
(UTC+00:00)

Daily predictions for brighter satellites

Satellite Brightness Start Highest point End
(mag) Time Altitude Azimuth Time Altitude Azimuth Time Altitude Azimuth
MOS 1 Rocket 4.3 17:22:24 10° NE 17:25:42 21° E 17:28:56 10° SE
PSLV R/B 4.1 17:21:55 10° NNE 17:26:07 83° WNW 17:30:20 10° SSW
ARGOS 4.2 17:24:06 10° ESE 17:28:22 25° ENE 17:32:42 10° N
NOSS 2-2 (C) 4.2 17:25:23 10° SW 17:28:46 45° NW 17:32:27 10° NNE
NOSS 3-2 (A) 4.3 17:23:10 10° NNW 17:30:35 57° NE 17:38:53 10° SE
CZ-2C R/B 4.1 17:30:23 10° NE 17:33:44 16° E 17:37:05 10° SE
Cosmos 2151 Rocket 4.2 17:33:36 10° SSE 17:37:38 34° E 17:41:41 10° NNE
Meteor 1-21 4.4 17:32:44 10° NNW 17:38:21 78° W 17:43:55 10° S
Lacrosse 5 rocket 4.0 17:38:36 10° NNW 17:39:57 11° N 17:41:18 10° NNE
Cosmos 1975 Rocket 3.3 17:37:15 10° NNW 17:41:35 75° W 17:45:53 10° S
HJ-1C 4.1 17:40:08 10° SE 17:43:04 31° ENE 17:46:02 10° N
Shenzhou-11 Module 2.2 17:48:47 10° SW 17:50:40 28° SSE 17:51:33 20° ESE
COSMO-SKYMED 1 4.0 17:46:58 10° N 17:51:06 43° WNW 17:55:12 10° SW
Ariane Rocket 4.2 17:47:53 11° ESE 17:51:35 23° ENE 17:55:29 10° NNE
H-2A R/B 2.2 17:47:30 10° SE 17:52:18 50° ENE 17:57:14 10° N
Nadezhda 4 Rocket 4.2 17:48:37 10° N 17:54:30 46° ENE 18:00:21 10° SSE
Exosat Rocket 3.9 17:51:22 10° S 17:56:39 42° ESE 18:01:21 10° NE
Cosmos 2263 Rocket 4.5 17:53:24 10° WSW 17:57:57 25° NW 18:02:34 10° N
USA 116 3.7 17:57:36 10° NNE 18:01:22 90° WNW 18:05:37 10° SSW
Cosmos 1844 Rocket 2.6 17:56:26 10° SSW 18:02:00 83° ESE 18:07:37 10° NNE
Cosmos 2278 Rocket 3.9 18:02:58 10° SE 18:10:00 10° ENE 18:03:58 13° SE
Cosmos 1707 3.1 18:02:51 10° NNW 18:06:41 66° W 18:10:27 10° S
Cosmos 1626 4.0 18:05:55 10° NE 18:07:28 14° ENE 18:07:28 14° ENE
CZ-2C R/B 3.2 18:06:03 10° WSW 18:08:35 17° SSW 18:11:00 10° SSE
NOSS 3-2 (C) 4.2 18:01:22 10° NNW 18:08:52 62° NE 18:16:08 15° SE
Cosmos 2034 Rocket 4.0 18:03:08 10° S 18:09:25 68° E 18:15:43 10° NNE
Cosmos 1844 3.6 18:03:45 10° SSW 18:09:26 76° ESE 18:15:05 10° NNE
NOSS 3-4 (A) 3.6 18:05:26 10° S 18:10:59 46° ESE 18:16:50 10° NE
NOSS 3-4 (C) 3.6 18:05:33 10° S 18:11:06 46° ESE 18:16:56 10° NE
USA 186 2.8 18:11:03 26° E 18:11:26 26° ENE 18:14:15 10° NNE
ISS -1.4 18:09:28 10° WNW 18:11:58 19° NNW 18:14:29 10° NE
Meteor 2-5 Rocket 4.3 18:09:27 10° N 18:14:41 36° ENE 18:18:15 19° SE
Cosmos 1300 Rocket 4.2 18:13:57 10° SSW 18:18:17 60° W 18:22:42 10° N
Okean 1 Rocket 3.3 18:17:11 10° SSE 18:21:28 47° E 18:25:47 10° NNE
Resurs 01 Rocket 3.7 18:25:52 13° NE 18:25:52 13° NE 18:27:13 10° NNE
CENTAUR R/B 3.2 18:19:50 10° NNW 18:28:01 74° NE 18:34:46 19° SE
Cosmos 1833 Rocket 3.9 18:24:34 10° N 18:29:01 23° NE 18:30:12 22° ENE
CSL-04 Rocket 4.1 18:24:59 10° S 18:30:22 64° WSW 18:35:51 10° NNW
Cosmos 1766 3.3 18:28:43 10° S 18:32:31 51° E 18:36:21 10° NNE
Okean 2 Rocket 4.5 18:28:40 10° SSW 18:32:55 41° WNW 18:37:08 10° N
YAOGAN 1 4.4 18:29:18 10° SSW 18:33:11 32° W 18:37:05 10° NNW
ATLAS 2AS CENTAUR R/B 3.0 18:25:35 10° SSW 18:33:22 65° ESE 18:41:12 10° NE
Cosmos 1025 Rocket 4.0 18:31:51 10° NNW 18:36:05 48° W 18:40:18 10° SSW
Cosmos 1634 Rocket 4.1 18:31:18 10° SSE 18:37:11 49° E 18:43:07 10° NNE
ATLAS 3B R/B 3.5 18:33:50 10° NNW 18:40:02 34° NE 18:42:34 27° E
SPOT 3 Rocket 4.4 18:40:10 29° ENE 18:40:23 29° ENE 18:44:46 10° N
Abrixas rocket 2.6 18:39:50 10° NW 18:42:11 45° NNW 18:42:11 45° NNW
CREW DRAGON DEMO-1 DEB 3.3 18:41:40 10° NW 18:44:16 50° N 18:44:16 50° N
Cosmos 1125 Rocket 4.2 18:40:35 10° SW 18:45:47 56° WNW 18:51:02 10° NNE
Cosmos 1536 Rocket 4.4 18:41:32 10° NNW 18:45:53 52° W 18:50:13 10° S
SJ-6B 2.7 18:48:31 60° ENE 18:48:31 60° ENE 18:52:07 10° N
CZ-4 R/B 4.4 18:48:13 10° SW 18:50:57 17° W 18:53:42 10° NW
Cosmos 2195 Rocket 4.3 18:50:08 10° N 18:56:23 77° E 19:00:07 25° SSE
Cosmos 2285 Rocket 4.4 18:50:11 10° SSW 18:56:26 65° WNW 19:02:46 10° NNE
USA 238 DEB 4.4 18:49:58 10° NW 18:57:04 56° WSW 19:03:15 15° S
USA 238 4.4 18:50:05 10° NW 18:57:10 56° WSW 19:03:18 15° SSE
Cosmos 1627 Rocket 4.4 18:51:37 10° N 18:58:02 72° E 19:01:23 30° SSE
Cosmos 1674 3.5 18:54:31 10° NNW 18:58:14 50° W 19:00:17 24° SSW
Cosmos 2026 Rocket 3.9 18:52:54 10° N 18:59:17 70° E 19:02:16 33° SSE
Cosmos 1092 Rocket 3.9 18:53:14 10° N 18:59:27 90° W 19:04:17 18° S
Cosmos 1428 Rocket 4.3 19:01:34 10° N 19:07:50 76° E 19:10:06 41° SSE
ARGOS 4.2 19:03:16 10° S 19:08:22 44° W 19:13:30 10° NNW
Cosmos 1340 Rocket 4.4 19:15:11 26° N 19:15:11 26° N 19:17:04 10° N
Cosmos 2279 Rocket 3.9 19:12:59 56° ESE 19:13:42 59° E 19:19:50 10° NNE
CZ-2C R/B 2.9 19:08:56 10° N 19:14:30 71° WNW 19:20:05 10° SSW
Cosmos 1733 4.0 19:13:48 39° SW 19:14:46 50° W 19:18:31 10° N
MOS 1 4.4 19:13:05 35° S 19:15:38 76° WSW 19:21:23 10° NNW
Lacrosse 5 rocket 3.7 19:17:59 10° NNW 19:20:43 16° NNE 19:20:43 16° NNE
Cosmos 2082 Rocket 3.2 19:17:09 10° N 19:21:17 31° NE 19:21:17 31° NE
DMSP B5D2-2 4.4 19:19:04 10° N 19:24:19 65° WNW 19:29:31 10° SSW
BREEZE-M DEB (TANK) 4.1 19:20:43 10° WNW 19:24:41 53° SSW 19:27:36 37° SSE
OBJECT-B 3.6 19:28:48 15° NNW 19:28:48 15° NNW 19:29:26 10° NNW
Cosmos 2142 Rocket 4.4 19:24:37 36° S 19:27:25 88° E 19:33:40 10° N
Ariane Rocket 3.9 19:28:06 29° SSW 19:30:13 45° W 19:35:06 10° NNW
H-2A R/B 4.5 19:28:31 10° SW 19:32:01 19° W 19:35:37 10° NW
Milstar 3 Cent rocket 4.0 19:29:11 10° SW 19:32:39 19° SSW 19:32:39 19° SSW
USA 234 4.0 19:38:14 36° SSW 19:38:14 36° SSW 19:42:03 10° SSW
Cosmos 1626 4.4 19:40:07 10° NNW 19:42:02 24° NW 19:42:02 24° NW
COSMOS 2406 3.4 19:42:38 10° NNW 19:47:56 66° W 19:47:56 66° W
ISS -0.4 19:47:28 10° NW 19:47:46 11° NNW 19:47:46 11° NNW
Cosmos 2278 Rocket 2.9 19:44:16 10° SSW 19:51:32 45° N 19:55:32 10° NNE
Lacrosse 4 Rocket 3.8 19:51:48 10° NNW 19:52:52 17° NNW 19:52:52 17° NNW
Resurs 01 Rocket 3.6 20:03:26 25° NNW 20:03:26 25° NNW 20:05:23 10° NNW
Cosmos 1833 Rocket 3.6 20:07:48 10° NNW 20:11:54 44° WNW 20:11:54 44° WNW
ATLAS 2AS CENTAUR R/B 4.3 20:17:37 10° WSW 20:24:52 37° NW 20:32:04 10° NNE
ATLAS 3B R/B 3.3 20:24:16 10° NW 20:29:50 52° W 20:29:50 52° W
Cosmos 2082 Rocket 4.4 21:01:13 10° NW 21:03:08 20° NW 21:03:08 20° NW
